Flag for Germany Weather past 2 weeks in Kassel, Hesse, Germany

Now
50 °F

Passing clouds.


Feels Like: 45 °F
Forecast: 42 / 62 °F
Wind: 14 mph from West

Location: Kassel / Calden

Current Time: Sep 22, 2014 at 7:20:33 AM

Latest Report: Sep 22, 2014 at 6:50 AM


Visibility: 5 mi

Pressure: 30.01 "Hg

Humidity: 94%

Dew point: 48 °F

Location of KasselLocation

Historic Weather in Kassel — Graph

°F

Kassel temperature yesterday

Maximum temperature yesterday: 61 °F (at 10:20 AM)
Minimum temperature yesterday: 52 °F (at 9:50 PM)
Average temperature yesterday: 58 °F

Past Weeks' High & Low Weather Summary

 TemperatureHumidityPressure
High73 °F (Sep 16, 3:50 PM)100% (Sep 7, 6:20 AM)30.21 "Hg (Sep 7, 6:20 AM)
Low46 °F (Sep 9, 6:20 AM)11% (Sep 9, 4:50 PM)29.89 "Hg (Sep 18, 2:20 PM)
Average61 °F85%30.03 "Hg
* Reported Sep 7 6:20 AM — Sep 22 6:20 AM, Kassel, Weather by CustomWeather, © 2014

Note: Actual official high and low records may vary slightly from our data, if they occured in-between our weather recording intervals... More about our weather records

Advertising

Kassel weather history for previous 24 hours

 ConditionsComfort  
Time TempWeatherWind HumidityBarometerVisibility
6:20 AM
Sep 22
50 °FPassing clouds.14 mph94%30.01 "Hg5 mi
5:50 AM52 °FPassing clouds.14 mph88%30.01 "Hg4 mi
9:50 PM
Sep 21
52 °FPassing clouds.12 mph88%30.04 "HgN/A
9:20 PM54 °FPartly cloudy.12 mph88%30.01 "HgN/A
8:50 PM55 °FPassing clouds.12 mph82%30.01 "HgN/A
8:20 PM55 °FDrizzle. Mostly cloudy.12 mph82%30.01 "HgN/A
7:50 PM55 °FMostly cloudy.16 mph82%29.98 "HgN/A
7:20 PM55 °FScattered clouds.8 mph88%29.98 "HgN/A
6:50 PM57 °FScattered clouds.10 mph88%29.98 "HgN/A
6:20 PM59 °FScattered clouds.12 mph82%29.98 "HgN/A
5:50 PM57 °FScattered clouds.9 mph88%29.98 "Hg6 mi
5:20 PM59 °FPartly sunny.8 mph82%29.98 "HgN/A
4:50 PM57 °FPartly sunny.15 mph82%29.98 "Hg6 mi
4:20 PM59 °FPartly sunny.12 mph88%29.95 "Hg6 mi
3:50 PM59 °FMostly cloudy.10 mph94%29.95 "Hg6 mi
3:20 PM59 °FBroken clouds.9 mph88%29.98 "Hg6 mi
2:50 PM57 °FMostly cloudy.9 mph100%29.95 "Hg6 mi
2:20 PM57 °FLight rain. Mostly cloudy.13 mph94%29.95 "Hg5 mi
1:50 PM59 °FLight rain. Mostly cloudy.14 mph94%29.98 "Hg5 mi
1:20 PM59 °FLight rain. More clouds than sun.15 mph94%29.98 "Hg4 mi
12:50 PM59 °FLight rain. Partly sunny.9 mph94%29.95 "Hg2 mi
12:20 PM61 °FLight rain. Fog.9 mph88%29.95 "Hg3 mi
11:20 AM59 °FFog.8 mph94%29.95 "Hg3 mi
10:50 AM61 °FFog.7 mph88%29.95 "Hg3 mi
10:20 AM61 °FFog.7 mph88%29.95 "Hg3 mi
9:50 AM59 °FFog.6 mph94%29.95 "Hg3 mi
9:20 AM59 °FFog.7 mph94%29.95 "Hg3 mi
8:50 AM59 °FFog.2 mph94%29.95 "Hg2 mi
8:20 AM59 °FFog.2 mph94%29.95 "Hg2 mi
7:50 AM59 °FFog.5 mph94%29.95 "Hg2 mi
7:20 AM59 °FFog.5 mph94%29.95 "Hg2 mi
Weather by CustomWeather, © 2014

See weather overviewHow to use our weather pages